Vorticity
5 2 0 2 3 4 3 4 5 1 3 4 3 2 3 1 3 5 6 7 7 8 7 8 8 8 8 6 5 0 2 4 6 4 4 7 4 7 9 11 12 19 34 44
5 3 3 4 4 4 4 3 5 3 3 2 6 4 2 2 1 3 5 8 10 8 7 9 8 6 9 2 -1 3 9 6 3 5 8 6 6 10 9 10 24 36 47 29
8 4 3 4 2 5 4 5 2 4 4 3 8 6 3 4 0 5 6 6 7 8 10 9 7 6 4 5 11 7 2 5 6 8 9 6 10 9 10 31 35 42 25 9
9 8 5 4 4 3 3 4 4 3 4 8 7 5 9 2 4 5 5 7 10 10 10 8 6 3 11 7 2 4 5 6 7 10 8 10 8 13 33 30 34 35 9 17
9 9 5 6 5 4 4 3 6 5 6 8 7 10 6 5 7 6 7 8 6 10 8 7 6 10 4 3 5 6 6 6 11 9 9 7 15 31 27 28 35 20 8 10
9 8 6 8 6 5 3 4 5 5 6 7 9 6 5 7 6 6 7 7 8 9 9 7 8 4 5 4 8 7 6 10 10 7 8 17 28 27 27 28 30 12 7 13
5 5 9 10 8 8 7 3 6 5 5 8 12 7 4 5 5 7 7 9 10 9 10 6 5 3 7 7 7 7 10 9 7 7 21 24 24 22 27 28 19 9 11 11
9 9 12 11 9 9 5 4 6 5 8 10 10 7 6 6 6 7 9 8 8 9 6 3 4 7 6 8 7 9 9 7 8 24 21 19 22 25 24 27 14 10 10 10
6 9 10 7 7 7 6 5 7 9 9 10 7 5 4 6 8 10 7 7 8 6 3 5 8 6 8 5 9 11 8 7 24 22 13 22 23 25 24 21 11 7 13 5
8 9 5 6 7 7 8 9 9 10 9 7 5 6 9 7 8 9 9 9 5 4 4 8 7 6 7 9 13 7 8 21 25 10 16 24 24 22 24 17 9 9 9 5
9 11 7 11 10 10 10 11 10 8 6 6 8 8 6 7 10 6 5 6 6 4 8 8 4 6 11 12 6 8 20 26 12 10 21 25 24 21 22 14 10 9 9 3
9 11 13 12 11 10 9 8 6 7 8 8 8 7 8 13 11 7 7 6 5 7 6 8 7 12 13 7 9 18 27 13 10 15 23 25 21 20 20 13 10 11 8 5
10 10 9 9 8 7 7 8 9 8 8 10 8 11 14 7 5 6 6 6 8 1 8 5 12 13 7 9 18 24 16 10 13 21 26 22 19 18 20 13 11 10 7 5
8 7 6 6 7 10 10 8 5 7 11 10 15 8 5 5 5 7 9 9 1 3 4 14 15 7 9 17 23 16 13 15 17 23 22 20 16 17 21 12 10 8 6 9
8 9 9 10 10 8 6 8 13 16 13 7 3 2 4 9 12 12 9 1 4 3 13 17 8 8 17 21 18 12 14 21 17 23 17 18 14 14 22 15 7 6 6 11
9 8 11 10 10 11 14 10 10 8 8 6 4 4 8 9 10 9 1 10 1 19 14 7 8 14 19 19 11 12 23 20 19 17 15 17 16 12 17 23 13 6 7 11
10 13 12 7 5 8 6 8 9 10 7 3 8 9 9 12 6 6 5 6 20 12 9 11 13 18 19 15 9 21 24 17 17 11 11 12 13 19 15 17 19 9 8 11
10 9 8 8 7 6 6 6 8 9 11 9 9 13 9 2 10 1 12 19 9 8 10 15 16 18 15 11 16 25 22 17 12 9 9 8 7 7 12 16 16 18 17 9
5 4 6 6 6 9 11 12 7 11 16 14 11 9 9 6 11 16 13 10 11 11 16 17 16 14 13 12 18 27 20 14 10 5 4 4 6 7 7 9 11 13 11 12
6 9 7 8 7 10 12 14 14 10 9 10 7 5 12 15 12 11 12 11 12 15 18 19 13 12 14 12 21 32 18 11 10 11 10 11 9 9 11 10 8 8 12 12
6 8 11 12 14 13 12 8 8 9 7 9 14 16 12 10 10 11 12 9 14 15 16 13 12 14 14 13 26 30 18 11 8 9 9 11 5 2 11 13 11 10 10 11
16 13 10 9 15 15 12 8 6 10 17 14 12 10 8 9 8 6 9 15 20 16 17 13 7 12 13 15 30 26 15 13 11 8 6 8 12 7 8 12 12 12 13 13
10 10 16 14 10 6 8 23 19 16 8 9 7 7 7 8 10 17 20 19 16 16 18 12 7 11 14 18 28 23 13 11 13 10 11 9 10 11 10 11 13 14 12 10
19 11 5 11 28 17 8 8 7 8 7 8 8 11 15 20 19 16 20 15 14 19 16 11 9 13 16 19 28 19 10 11 10 9 12 11 9 9 9 10 10 10 9 9
14 25 6 7 12 7 12 7 4 6 10 12 12 14 16 12 15 18 15 12 11 13 13 10 11 14 17 21 24 16 10 10 10 8 8 9 9 8 7 8 9 9 10 10
7 15 12 10 8 6 5 6 8 7 10 16 13 14 15 9 12 12 12 11 11 11 11 11 12 12 15 18 19 14 11 11 9 8 8 8 8 8 10 12 13 13 12 12
12 4 -3 -1 0 1 5 8 5 8 14 13 13 15 13 18 14 8 13 15 14 13 13 13 12 12 15 17 16 13 12 11 9 9 10 10 10 11 12 13 16 19 19 17
Height
5764 5765 5765 5766 5767 5767 5766 5764 5763 5762 5759 5754 5751 5748 5744 5739 5735 5730 5725 5719 5713 5708 5701 5695 5689 5683 5677 5670 5662 5654 5645 5635 5625 5614 5602 5589 5576 5561 5546 5529 5513 5497 5483 5469
5760 5760 5760 5761 5762 5762 5760 5758 5756 5754 5752 5749 5745 5741 5737 5733 5728 5723 5716 5710 5704 5697 5691 5685 5679 5672 5665 5657 5650 5641 5631 5621 5609 5597 5584 5571 5557 5541 5525 5509 5493 5479 5467 5458
5755 5756 5754 5756 5758 5754 5753 5751 5749 5746 5744 5741 5737 5733 5729 5724 5718 5713 5706 5700 5693 5687 5680 5674 5667 5661 5654 5646 5636 5627 5616 5604 5593 5580 5567 5552 5537 5520 5504 5488 5475 5464 5456 5450
5750 5750 5747 5753 5751 5748 5746 5744 5742 5739 5736 5733 5728 5724 5719 5713 5708 5701 5695 5688 5682 5676 5669 5663 5656 5648 5640 5631 5621 5611 5600 5589 5576 5562 5547 5532 5517 5500 5484 5471 5460 5452 5447 5441
5743 5744 5743 5745 5744 5741 5738 5737 5734 5730 5726 5723 5719 5714 5709 5702 5696 5690 5683 5677 5670 5664 5657 5650 5643 5634 5626 5616 5606 5595 5583 5570 5556 5543 5529 5513 5498 5482 5469 5458 5448 5442 5438 5433
5737 5735 5734 5737 5736 5733 5729 5728 5723 5720 5716 5712 5708 5703 5697 5691 5684 5678 5672 5666 5659 5652 5644 5637 5629 5620 5611 5601 5589 5577 5564 5551 5538 5523 5509 5494 5480 5467 5455 5446 5439 5434 5431 5426
5730 5727 5727 5728 5726 5723 5721 5719 5713 5710 5705 5701 5696 5692 5686 5679 5673 5667 5661 5653 5645 5638 5631 5623 5614 5605 5594 5584 5572 5560 5547 5534 5520 5505 5491 5476 5464 5453 5444 5435 5430 5427 5423 5418
5723 5721 5719 5719 5717 5713 5709 5705 5702 5699 5694 5690 5684 5679 5673 5667 5661 5655 5647 5639 5631 5624 5616 5608 5599 5590 5579 5568 5556 5543 5530 5517 5503 5489 5475 5463 5450 5440 5433 5427 5423 5419 5415 5411
5716 5713 5710 5707 5704 5701 5698 5695 5691 5687 5682 5677 5672 5666 5660 5654 5647 5640 5633 5626 5619 5611 5601 5592 5583 5573 5563 5551 5540 5528 5515 5500 5487 5474 5462 5449 5438 5430 5424 5419 5416 5412 5408 5404
5705 5705 5700 5696 5693 5691 5687 5683 5679 5675 5670 5665 5659 5653 5647 5640 5635 5628 5620 5613 5605 5597 5587 5577 5567 5556 5546 5535 5524 5512 5499 5485 5472 5461 5449 5437 5428 5421 5416 5412 5409 5405 5401 5398
5693 5692 5688 5686 5683 5680 5676 5672 5668 5663 5658 5653 5646 5640 5634 5628 5622 5615 5607 5599 5591 5582 5572 5562 5552 5541 5531 5519 5507 5495 5482 5470 5459 5447 5436 5426 5419 5413 5408 5405 5402 5398 5395 5391
5681 5680 5677 5676 5672 5669 5665 5661 5656 5651 5645 5639 5633 5627 5621 5616 5608 5601 5594 5586 5576 5566 5557 5547 5537 5526 5515 5503 5491 5479 5468 5457 5446 5435 5425 5417 5410 5405 5400 5398 5394 5392 5388 5385
5671 5668 5666 5663 5660 5657 5653 5648 5643 5637 5632 5626 5621 5616 5609 5602 5595 5588 5580 5571 5561 5552 5543 5532 5521 5510 5499 5488 5476 5465 5454 5444 5434 5425 5416 5409 5403 5397 5393 5390 5388 5385 5382 5379
5662 5659 5656 5652 5649 5645 5640 5635 5630 5626 5620 5614 5609 5603 5596 5588 5580 5573 5564 5555 5545 5536 5526 5516 5506 5495 5484 5473 5461 5452 5442 5432 5423 5415 5407 5400 5395 5390 5385 5383 5379 5377 5376 5372
5651 5648 5644 5640 5636 5632 5628 5623 5617 5612 5607 5601 5595 5588 5581 5572 5564 5556 5547 5538 5530 5519 5510 5501 5491 5480 5469 5459 5449 5439 5430 5421 5413 5406 5399 5393 5388 5383 5378 5375 5373 5370 5368 5365
5640 5636 5632 5628 5625 5620 5615 5609 5604 5599 5594 5587 5580 5573 5565 5557 5548 5540 5531 5522 5515 5505 5495 5487 5475 5465 5455 5445 5436 5427 5418 5411 5404 5397 5392 5386 5381 5377 5372 5368 5366 5364 5361 5359
5628 5624 5621 5617 5612 5607 5602 5597 5592 5586 5579 5572 5565 5557 5548 5540 5532 5524 5516 5507 5497 5489 5479 5470 5460 5451 5441 5431 5424 5415 5407 5401 5396 5391 5386 5380 5375 5370 5366 5362 5359 5357 5354 5352
5616 5612 5608 5604 5599 5594 5588 5583 5576 5570 5563 5555 5547 5539 5532 5525 5518 5510 5501 5492 5482 5474 5461 5453 5444 5436 5427 5418 5410 5403 5397 5392 5387 5383 5379 5374 5369 5365 5361 5357 5353 5350 5347 5344
5604 5600 5595 5590 5585 5580 5574 5567 5560 5553 5546 5539 5532 5525 5517 5509 5502 5494 5485 5476 5465 5459 5451 5439 5430 5422 5414 5406 5399 5392 5386 5382 5378 5374 5370 5367 5362 5358 5354 5351 5347 5344 5341 5337
5590 5586 5581 5575 5569 5563 5557 5550 5543 5537 5531 5524 5517 5510 5502 5493 5484 5477 5468 5461 5447 5439 5432 5424 5416 5408 5401 5394 5386 5380 5375 5372 5369 5365 5361 5358 5354 5350 5346 5342 5340 5336 5333 5329
5574 5568 5563 5556 5550 5545 5540 5535 5529 5522 5515 5508 5501 5493 5485 5478 5468 5459 5452 5444 5435 5425 5417 5409 5403 5396 5389 5381 5373 5367 5364 5361 5358 5355 5352 5348 5344 5341 5337 5333 5330 5327 5324 5320
5558 5552 5547 5542 5535 5529 5524 5519 5514 5507 5499 5491 5483 5476 5469 5462 5452 5444 5435 5424 5420 5411 5403 5397 5390 5383 5375 5368 5361 5356 5353 5349 5347 5344 5341 5337 5333 5330 5327 5323 5319 5316 5313 5310
5542 5537 5532 5527 5521 5516 5510 5503 5497 5490 5484 5477 5469 5460 5451 5444 5437 5426 5421 5413 5404 5396 5390 5384 5377 5370 5363 5356 5349 5345 5341 5339 5336 5333 5329 5326 5322 5319 5316 5312 5309 5305 5302 5299
5526 5521 5516 5511 5506 5501 5497 5490 5484 5475 5467 5461 5453 5443 5434 5426 5421 5411 5402 5396 5388 5381 5375 5369 5363 5357 5350 5343 5338 5334 5330 5327 5324 5321 5318 5315 5311 5308 5304 5301 5298 5295 5291 5288
5513 5508 5502 5498 5493 5488 5481 5476 5471 5463 5455 5447 5438 5428 5418 5409 5401 5396 5388 5381 5373 5367 5361 5354 5349 5343 5337 5331 5326 5322 5319 5316 5313 5309 5306 5303 5299 5296 5292 5289 5285 5282 5279 5275
5501 5496 5490 5485 5480 5474 5468 5461 5454 5445 5435 5428 5423 5411 5402 5393 5385 5379 5372 5365 5359 5353 5347 5341 5335 5329 5324 5319 5314 5310 5307 5304 5300 5297 5294 5290 5287 5283 5279 5275 5271 5268 5264 5261
5489 5484 5479 5473 5466 5459 5451 5442 5435 5428 5417 5407 5401 5394 5385 5378 5370 5363 5356 5349 5342 5337 5331 5326 5320 5315 5310 5306 5302 5298 5294 5291 5288 5284 5281 5277 5273 5269 5265 5261 5256 5252 5248 5245